Fort Eustis, VA

5:36 AM EST on November 25, 2017 (GMT -0500)
Felker Army Air Field

Weather History for KFAF - September, 2012

Change the Weather History Date:

Friday, September 28, 2012

  Actual Average Record
Temperature  
Mean Temperature 74 °F -  
Max Temperature 81 °F 74 °F 95 °F (1998)
Min Temperature 66 °F 58 °F 48 °F (2000)
Cooling Degree Days 8    
Growing Degree Days 24 (Base 50)    
Moisture  
Dew Point 66 °F    
Average Humidity 82    
Maximum Humidity 96    
Minimum Humidity 62    
Precipitation  
Precipitation 0.03 in - - ()
Sea Level Pressure  
Sea Level Pressure 30.01 in    
Wind  
Wind Speed 4 mph (WSW)    
Max Wind Speed 23 mph    
Max Gust Speed 36 mph    
Visibility 10 miles    
Events Rain , Thunderstorm    
Averages and records for this station are not official NWS values.
T = Trace of Precipitation, MM = Missing Value Source: NWS Daily Summary

Daily Weather History Graph

Daily Weather History Graph

Search for Another Location

Airport or City:

Trip Planner

Search our weather history database for the weather conditions in past years. The results will help you decide how hot, cold, wet, or windy it might be!

Date:

Astronomy

Sep. 28, 2012 Rise Set
Actual Time 6:59 AM EDT 6:53 PM EDT
Civil Twilight 6:33 AM EDT 7:19 PM EDT
Nautical Twilight 6:03 AM EDT 7:49 PM EDT
Astronomical Twilight 5:33 AM EDT 8:19 PM EDT
Moon 5:54 PM EDT (9/28) 5:29 AM EDT (9/28)
Length of Visible Light 12h 45m
Length of Day
11h 53m
Waxing Gibbous, 98% of the Moon is Illuminated
Sep 28
Waxing Gibbous
Sep 29
Full
Oct 8
Last Quarter
Oct 15
New
Oct 21
First Quarter

Hourly Weather History & Observations

Time (EDT) Temp. Heat Index Dew Point Humidity Pressure Visibility Wind Dir Wind Speed Gust Speed Precip Events Conditions
12:55 AM 68.9 °F - 65.1 °F 88% 30.10 in 10.0 mi South 5.8 mph - N/A   Clear
1:55 AM 69.3 °F - 66.0 °F 89% 30.10 in 10.0 mi Variable 3.5 mph - N/A   Mostly Cloudy
2:55 AM 68.5 °F - 65.1 °F 89% 30.09 in 10.0 mi SSW 5.8 mph - N/A   Mostly Cloudy
3:55 AM 68.4 °F - 64.2 °F 87% 30.07 in 10.0 mi SW 4.6 mph - N/A   Overcast
4:55 AM 67.8 °F - 64.2 °F 88% 30.06 in 10.0 mi Variable 4.6 mph - N/A   Clear
5:55 AM 67.1 °F - 64.0 °F 90% 30.07 in 10.0 mi Calm Calm - N/A   Clear
6:55 AM 66.4 °F - 63.9 °F 92% 30.07 in 10.0 mi SSW 4.6 mph - N/A   Clear
7:55 AM 67.3 °F - 64.2 °F 90% 30.07 in 10.0 mi Calm Calm - N/A   Clear
8:55 AM 69.4 °F - 65.3 °F 87% 30.07 in 10.0 mi SSW 5.8 mph - N/A   Clear
9:55 AM 71.2 °F - 65.8 °F 83% 30.06 in 10.0 mi SSW 4.6 mph - N/A   Clear
10:55 AM 74.5 °F - 64.2 °F 70% 30.06 in 10.0 mi SSW 4.6 mph - N/A   Clear
11:55 AM 77.0 °F - 65.5 °F 67% 30.05 in 10.0 mi Variable 3.5 mph - N/A   Clear
12:55 PM 80.6 °F 82.8 °F 66.6 °F 62% 30.03 in 10.0 mi WSW 3.5 mph - N/A   Partly Cloudy
1:55 PM 79.3 °F - 66.2 °F 64% 30.01 in 10.0 mi SE 3.5 mph - N/A   Scattered Clouds
2:55 PM 79.5 °F - 67.3 °F 66% 29.99 in 10.0 mi Variable 4.6 mph - N/A   Scattered Clouds
3:55 PM 81.0 °F 83.4 °F 67.5 °F 63% 29.97 in 10.0 mi WSW 3.5 mph - N/A   Clear
4:55 PM 80.4 °F 82.8 °F 67.3 °F 64% 29.96 in 10.0 mi Variable 3.5 mph - N/A   Clear
5:55 PM 78.4 °F - 68.4 °F 71% 29.96 in 10.0 mi Calm Calm - N/A   Mostly Cloudy
6:32 PM 77.0 °F - 68.0 °F 74% 29.96 in 10.0 mi SW 1.2 mph - N/A Thunderstorm Overcast
6:46 PM 77.0 °F - 68.0 °F 74% 29.98 in 10.0 mi NW 10.4 mph - N/A Thunderstorm Thunderstorm
6:55 PM 74.3 °F - 66.9 °F 78% 29.98 in 4.0 mi NW 23.0 mph 35.7 mph 0.03 in Rain , Thunderstorm Thunderstorms and Rain
6:59 PM 71.6 °F - 68.0 °F 88% 29.97 in 6.0 mi NNW 5.8 mph 35.7 mph N/A Rain , Thunderstorm Light Thunderstorms and Rain
7:00 PM 71.6 °F - 68.0 °F 88% 29.97 in 6.0 mi NNW 5.8 mph 35.7 mph N/A Rain , Thunderstorm Light Thunderstorms and Rain
7:12 PM 69.8 °F - 66.2 °F 88% 29.99 in 10.0 mi Variable 3.5 mph - N/A Thunderstorm Thunderstorm
7:23 PM 69.8 °F - 66.2 °F 88% 29.98 in 10.0 mi Calm Calm - N/A Thunderstorm Mostly Cloudy
7:49 PM 69.8 °F - 66.2 °F 88% 29.96 in 10.0 mi Calm Calm - N/A   Light Drizzle
7:55 PM 69.8 °F - 66.9 °F 91% 29.96 in 10.0 mi East 4.6 mph - 0.00 in Rain Light Rain
8:22 PM 68.0 °F - 66.2 °F 94% 29.98 in 10.0 mi WNW 3.5 mph - N/A   Partly Cloudy
8:55 PM 68.7 °F - 67.5 °F 96% 29.99 in 10.0 mi WNW 4.6 mph - 0.00 in   Overcast
9:55 PM 69.8 °F - 65.1 °F 85% 29.97 in 10.0 mi Calm Calm - N/A   Scattered Clouds
10:55 PM 69.1 °F - 64.9 °F 87% 29.99 in 10.0 mi Calm Calm - N/A   Mostly Cloudy
11:55 PM 68.7 °F - 66.6 °F 93% 29.99 in 10.0 mi NNW 6.9 mph - N/A   Mostly Cloudy
11:58 PM 68.0 °F - 66.2 °F 94% 29.99 in 10.0 mi Variable 6.9 mph - N/A   Mostly Cloudy